This demonstration page uses our WeatherBlox Daily Observations layout. Learn more.

Left ArrowRight Arrow

Hourly Observations for July 20, 2018

Temp ( °F °C ) Dew Point ( °F °C ) Humidity (%) Winds ( mph kmh ) Pressure ( in mb ) Visibility ( mi km ) Precip ( " mm )
12:15 am 00:15 Clear 71 21.8 67 19.6 87 87 N N/A 29.85 1011 10 16 N/A
12:35 am 00:35 Clear 71 21.9 67 19.5 86 86 N N/A 29.85 1011 10 16 N/A
12:55 am 00:55 Clear 71 21.5 68 19.9 91 91 N N/A 29.88 1012 10 16 N/A
1:15 am 01:15 Clear 70 21.1 68 19.8 92 92 N N/A 29.88 1012 10 16 N/A
1:35 am 01:35 Clear 68 20.2 66 19 93 93 NW 3 6 29.88 1012 7 11 N/A
1:55 am 01:55 Clear 68 20.1 66 18.9 93 93 N 5 7 29.88 1012 7 11 N/A
2:15 am 02:15 Clear 68 19.8 66 18.8 94 94 N 5 7 29.88 1012 7 11 N/A
2:35 am 02:35 Clear 68 19.8 66 18.8 94 94 N N/A 29.88 1012 7 11 N/A
2:55 am 02:55 Clear 67 19.7 66 18.7 94 94 N 3 6 29.88 1012 7 11 N/A
3:15 am 03:15 Clear 67 19.5 65 18.5 94 94 NNE 3 6 29.91 1013 10 16 N/A
3:35 am 03:35 Clear 67 19.5 65 18.5 94 94 N N/A 29.85 1011 10 16 N/A
3:55 am 03:55 Clear 67 19.3 65 18.2 93 93 NNE 3 6 29.91 1013 10 16 N/A
4:15 am 04:15 Clear 66 19 64 18 94 94 N N/A 29.88 1012 7 11 N/A
4:35 am 04:35 Clear 66 19.1 64 18 93 93 N N/A 29.88 1012 10 16 N/A
4:55 am 04:55 Clear 66 18.8 64 17.7 93 93 N N/A 29.88 1012 10 16 N/A
5:15 am 05:15 Clear 65 18.6 64 17.5 93 93 N N/A 29.88 1012 7 11 N/A
5:35 am 05:35 Clear 65 18.5 64 17.6 95 95 N N/A 29.88 1012 7 11 N/A
5:55 am 05:55 Clear with Mist and Fog 66 18.7 64 17.7 94 94 N N/A 29.88 1012 5 8 N/A
6:15 am 06:15 Clear with Mist and Fog 65 18.1 63 17.3 95 95 N 5 7 29.88 1012 5 8 N/A
6:35 am 06:35 Sunny with Mist and Fog 64 18 63 17.2 95 95 N N/A 29.88 1012 4 6 N/A
6:55 am 06:55 Sunny with Mist and Fog 65 18.3 64 17.6 96 96 ENE 3 6 29.91 1013 5 8 N/A
7:15 am 07:15 Sunny with Mist and Fog 67 19.5 66 18.7 95 95 N N/A 29.91 1013 5 8 N/A
7:35 am 07:35 Sunny with Mist and Fog 68 20.1 67 19.2 95 95 ENE 5 7 29.88 1012 5 8 N/A
7:55 am 07:55 Sunny 71 21.5 68 20 91 91 ENE 3 6 29.88 1012 7 11 N/A
8:15 am 08:15 Sunny 73 22.5 68 20.1 86 86 E 7 11 29.88 1012 7 11 N/A
8:35 am 08:35 Sunny 74 23.1 68 20.1 83 83 ESE 7 11 29.85 1011 10 16 N/A
8:55 am 08:55 Sunny 74 23.5 68 20.2 82 82 ESE 6 9 29.85 1011 10 16 N/A
9:15 am 09:15 Sunny 75 23.9 67 19.6 77 77 SE 6 9 29.85 1011 10 16 N/A
9:35 am 09:35 Sunny with Nearby Thunderstorms 76 24.6 69 20.3 77 77 ESE 6 9 29.85 1011 10 16 N/A
9:55 am 09:55 Sunny 78 25.4 68 20 72 72 SE 6 9 29.85 1011 10 16 N/A
10:15 am 10:15 Mostly Cloudy 77 24.9 68 19.8 73 73 ENE 7 11 29.88 1012 10 16 N/A
10:35 am 10:35 Cloudy with Thunderstorms 76 24.6 67 19.2 72 72 E 3 6 29.88 1012 10 16 N/A
10:55 am 10:55 Cloudy with Thunderstorms 77 25.1 67 19.6 72 72 E 6 9 29.88 1012 10 16 N/A
11:15 am 11:15 Cloudy 78 25.6 68 20 71 71 ESE 5 7 29.88 1012 10 16 N/A
11:35 am 11:35 Mostly Cloudy 80 26.5 68 19.8 67 67 E 5 7 29.88 1012 10 16 N/A
11:55 am 11:55 Cloudy 82 27.6 69 20.6 66 66 SE 6 9 29.85 1011 10 16 N/A
12:15 pm 12:15 Cloudy 82 28 68 20.1 62 62 SSE 9 15 29.85 1011 10 16 N/A
12:35 pm 12:35 Mostly Cloudy 82 27.6 69 20.4 65 65 E 6 9 29.85 1011 10 16 N/A
12:55 pm 12:55 Mostly Cloudy 82 27.6 70 21.2 68 68 E 6 9 29.85 1011 10 16 N/A
1:15 pm 13:15 Partly Cloudy 82 27.6 71 21.4 69 69 E 8 13 29.85 1011 10 16 N/A
1:35 pm 13:35 Mostly Cloudy 83 28.1 72 22 70 70 ENE 7 11 29.85 1011 10 16 N/A
1:55 pm 13:55 Mostly Cloudy 82 28 71 21.4 67 67 ENE 6 9 29.85 1011 10 16 N/A
2:15 pm 14:15 Mostly Cloudy 83 28.5 71 21.7 67 67 E 8 13 29.88 1012 10 16 N/A
2:35 pm 14:35 Mostly Cloudy 85 29.4 71 21.9 64 64 E 12 19 29.88 1012 10 16 N/A
2:55 pm 14:55 Partly Cloudy 85 29.5 71 21.9 64 64 E 12 19 29.85 1011 10 16 N/A
3:15 pm 15:15 Sunny 85 29.5 72 22 64 64 E 8 13 29.85 1011 10 16 N/A
3:35 pm 15:35 Sunny 86 30.1 72 22.1 62 62 ESE 7 11 29.85 1011 10 16 N/A
3:55 pm 15:55 Sunny 86 30.1 73 22.6 64 64 SE 7 11 29.85 1011 10 16 N/A
4:15 pm 16:15 Sunny 87 30.5 71 21.8 60 60 SSE 8 13 29.80 1009 10 16 N/A
4:35 pm 16:35 Sunny 87 30.7 71 21.7 59 59 SE 7 11 29.80 1009 10 16 N/A
4:55 pm 16:55 Sunny 88 31 70 20.9 55 55 ESE 7 11 29.80 1009 10 16 N/A
5:15 pm 17:15 Sunny 87 30.5 70 21.3 58 58 E 9 15 29.85 1011 10 16 N/A
5:35 pm 17:35 Sunny 87 30.3 69 20.8 57 57 E 8 13 29.85 1011 10 16 N/A
5:55 pm 17:55 Sunny 87 30.3 70 21 58 58 E 6 9 29.85 1011 10 16 N/A
6:15 pm 18:15 Sunny 87 30.3 70 21.3 59 59 E 8 13 29.85 1011 10 16 N/A
6:35 pm 18:35 Sunny 87 30.3 71 21.6 60 60 E 6 9 29.85 1011 10 16 N/A
6:55 pm 18:55 Sunny 86 30.1 70 21.2 59 59 ESE 6 9 29.85 1011 10 16 N/A
7:15 pm 19:15 Sunny 85 29.5 68 20 57 57 E 9 15 29.85 1011 10 16 N/A
7:35 pm 19:35 Sunny 85 29.2 70 21.2 62 62 E 9 15 29.85 1011 10 16 N/A
7:55 pm 19:55 Sunny 83 28.4 70 21.3 65 65 E 9 15 29.85 1011 10 16 N/A
8:15 pm 20:15 Sunny 82 27.6 71 21.5 69 69 E 9 15 29.88 1012 10 16 N/A
8:35 pm 20:35 Sunny 81 27 71 21.6 72 72 E 9 15 29.91 1013 10 16 N/A
8:55 pm 20:55 Sunny 79 25.9 71 21.6 77 77 E 7 11 29.91 1013 10 16 N/A
9:15 pm 21:15 Clear 77 25.2 71 21.5 80 80 E 8 13 29.91 1013 10 16 N/A
9:35 pm 21:35 Clear 76 24.6 70 21.3 82 82 E 7 11 29.91 1013 10 16 N/A
9:55 pm 21:55 Clear 75 24 70 21.1 84 84 E 5 7 29.91 1013 10 16 N/A
10:15 pm 22:15 Clear 74 23.3 70 20.9 86 86 E 5 7 29.94 1014 10 16 N/A
10:35 pm 22:35 Clear 74 23.2 70 21 87 87 E 7 11 29.94 1014 10 16 N/A
10:55 pm 22:55 Clear 74 23.1 69 20.6 86 86 E 6 9 29.94 1014 10 16 N/A
11:15 pm 23:15 Clear 73 22.7 69 20.5 87 87 E 6 9 29.94 1014 7 11 N/A
11:35 pm 23:35 Clear 73 22.7 69 20.5 87 87 ESE 5 7 29.94 1014 10 16 N/A
11:55 pm 23:55 Clear 73 22.7 69 20.5 87 87 ESE 5 7 29.94 1014 10 16 N/A

Powered by AerisWeather